sat.trackr.live / text

‹ back to catalog

STARLINK-5460

NORAD 55671 · 2023-021AV

PAYLOAD ACTIVE UNKNOWN

§ Identity

Operator
Country
US
Launch date
2023-02-17
Launch site
AFWTR
Launch vehicle
Mass (kg)
RCS (m²)

Purposes: comms

External: N2YO · Heavens-Above · Gunter

§ Orbital elements

Epoch: 2026-09-20T10:59:07.567872Z

Period
96.11 min
Inclination
70.0032°
Eccentricity
0.0002317
Mean motion
14.98288646 rev/d
Perigee alt
570.6 km
Apogee alt
573.8 km
Semi-major
6,950.3 km
B*
4.4925e-4
RAAN
33.5780°
Arg perigee
263.1491°
Mean anomaly
96.9404°
Rev number
19,845

§ Raw data

STARLINK-54601 55671U 23021AV  26263.45772648  .00005266  00000+0  44925-3 0  99992 55671  70.0032  33.5780 0002317 263.1491  96.9404 14.98288646198458

JSON: /api/v1/satellites/55671 · /tle

For live sub-satellite position, see the globe view (requires WebGL).

§ Visibility from observer

Set your observer location to see the next 7 days of passes ≥ 10°. The values pass through the URL so the page stays shareable.

No JS? Fill the form by hand. The geolocation button needs JavaScript.